Location: Pinhead Observatory
(34.4473°N, 118.1985°W)
Time: 12:52:34
(UTC-07:00)

CZ-4C R/B - Visible Passes

Search period start: 23 June 2018 00:00
Search period end: 03 July 2018 00:00
Orbit: 689 x 1313 km, 63.4° (Epoch: 22 June)

Date Brightness Start Highest point End Pass type
(mag) Time Alt. Az. Time Alt. Az. Time Alt. Az.
26 Jun 4.6 05:01:40 10° SE 05:03:39 12° ESE 05:05:43 10° E visible
29 Jun 3.8 04:51:02 10° SSE 04:55:11 28° ESE 04:59:45 10° NE visible
01 Jul 4.0 04:10:12 10° SSE 04:13:54 21° ESE 04:17:53 10° ENE visible
02 Jul 2.4 04:42:04 10° SSW 04:46:55 60° ESE 04:52:24 10° NE visible
